User: anonymous   Login
Location: Unspecified
(0.0000°N, 0.0000°E)
Time: 10:23:17
(UTC+00:00)
Language:

USA 250 - Orbit

View from above orbital plane
View from above orbital plane
View from above satellite
View from above satellite

Ground track
Ground track

The orbit data is extracted from the following two-line orbital elements,

1 39652U 14020A   19312.60404197 0.00000000  00000-0  00000-0 0    02
2 39652   1.5825 346.8760 0004180  36.7015 323.3511  1.00270000    05
Epoch (UTC): 08 November 2019 14:29:49
Eccentricity: 0.0004180
inclination: 1.5825°
perigee height: 35769 km
apogee height: 35804 km
right ascension of ascending node: 346.8760°
argument of perigee: 36.7015°
revolutions per day: 1.00270000
mean anomaly at epoch: 323.3511°
orbit number at epoch: 0

The dashed part of the orbit path shows where the satellite is in the earth's shadow,  

DLR